Regional Weather Roundup
Issued by NWS

Home | Current Version | Previous Version | Text Only | Print | Product List | Glossary On
Versions: 1 2 3 4 5 6 7 8 9 10 11 12 13 14 15 16 17 18 19 20 21 22 23 24 25 26 27
000
ASUS46 KSEW 051610
RWRWA

WASHINGTON REGIONAL WEATHER ROUNDUP
NATIONAL WEATHER SERVICE SEATTLE WA
900 AM PDT THU MAY 05 2016

NOTE:"FAIR" INDICATES FEW OR NO CLOUDS BELOW 12,000 FEET WITH NO
SIGNIFICANT WEATHER AND/OR OBSTRUCTIONS TO VISIBILITY.

WAZ505-507>509-051700-
SEATTLE, TACOMA, EVERETT, AND VICINITY

CITY           SKY/WX    TMP DP  RH WIND       PRES   REMARKS
EVERETT        PTSUNNY   53  45  74 NW8       30.05R
BOEING FIELD   PTSUNNY   58  47  66 VRB3      30.05S
RENTON         PTSUNNY   56  46  69 N6        30.04S
SEATAC AIRPORT PTSUNNY   56  44  64 N14       30.05S
JBLM-MCCHORD   PTSUNNY   56  47  71 NE7       30.05R
PUYALLUP       FAIR      55  46  71 VRB5      30.04R
BREMERTON      CLOUDY    54  45  71 N9        30.07R
JBLM-FT LEWIS  PTSUNNY   56  47  73 NW10      30.04R
TACOMA NARROWS PTSUNNY   55  44  66 N7        30.05R
$$

WAZ001-503-506-510-514-515-051700-
NORTH INTERIOR

CITY           SKY/WX    TMP DP  RH WIND       PRES   REMARKS
BELLINGHAM     CLOUDY    52  49  89 N5        30.05R
FRIDAY HARBOR  SUNNY     55  43  63 N9        30.07R
EASTSOUND      SUNNY     54  46  76 N16G23    30.05R
PORT ANGELES   MOSUNNY   53  45  74 CALM      30.06S
EDIZ HOOK      FAIR      51  46  81 N3        30.07R
PORT TOWNSEND  CLOUDY    54  41  62 NW8       30.07R
NAS WHIDBEY    CLOUDY    54  47  77 W8        30.09R
ARLINGTON      CLOUDY    54  43  66 NW3       30.07R
BURLINGTON     CLOUDY    54  50  87 NW9       30.05R
$$

WAZ020-022-039-040-504-511-512-051700-
SOUTHWEST INTERIOR

CITY           SKY/WX    TMP DP  RH WIND       PRES   REMARKS
SHELTON        CLOUDY    53  47  79 CALM      30.03S
OLYMPIA        CLOUDY    54  46  74 NE7       30.05R
CHEHALIS       FAIR      55  48  76 VRB6      30.05R
KELSO          MOSUNNY   54  43  66 W7        30.06F
VANCOUVER      CLOUDY    54  45  71 VRB7      30.01S
SCAPPOOSE, OR  MOSUNNY   58  45  62 N12       30.00F
PORTLAND, OR   CLOUDY    55  45  68 NW7       30.01S
$$

WAZ021-516-517-051700-
WASHINGTON COAST

CITY           SKY/WX    TMP DP  RH WIND       PRES   REMARKS
FORKS          SUNNY     50  44  80 CALM      30.05S
HOQUIAM        MOSUNNY   52  48  86 SE5       30.06R FOG
ASTORIA, OR    CLOUDY    53  45  74 NW10      30.06R
$$

WAZ019-023-024-040-518-519-051700-
CASCADE MOUNTAINS AND COLUMBIA GORGE

CITY           SKY/WX    TMP DP  RH WIND       PRES   REMARKS
STAMPEDE PASS  FOG       40  39  97 VRB5      29.99S VSB<1/4
TROUTDALE, OR  CLOUDY    55  45  68 VRB3      30.01R
THE DALLES, OR CLOUDY    60  49  66 NW13      29.94S
$$

WAZ026-027-041>044-520-521-051700-
EAST SLOPES

CITY           SKY/WX    TMP DP  RH WIND       PRES   REMARKS
OMAK           LGT RAIN  56  51  84 N12G21    29.96R
WENATCHEE      CLOUDY    57  50  77 SW3       29.94R
ELLENSBURG     CLOUDY    57  46  66 NW12      29.94R
YAKIMA         CLOUDY    62  47  57 N3        29.93S
$$

WAZ028-034-035-051700-
COLUMBIA BASIN

CITY           SKY/WX    TMP DP  RH WIND       PRES   REMARKS
EPHRATA        CLOUDY    61  55  81 N7        29.92R
MOSES LAKE     CLOUDY    60  55  83 CALM      29.93S
PASCO          PTSUNNY   64  55  72 W5        29.92S
HERMISTON, OR  PTSUNNY   61  52  72 W8        29.92S
$$

WAZ036>038-051700-
NORTHEAST WASHINGTON

CITY           SKY/WX    TMP DP  RH WIND       PRES   REMARKS
SPOKANE GEIGER PTSUNNY   56  50  80 SE3       29.95R
SPOKANE FELTS  CLOUDY    58  52  80 NE3       29.95S
FAIRCHILD AFB  CLOUDY    56  53  89 VRB2      29.94S
COEURDALENE,ID PTSUNNY   57  52  82 NW6       29.92F
DEER PARK      CLOUDY    56  51  84 SE6       29.96R
$$

WAZ029>033-051700-
SOUTHEAST WASHINGTON

CITY           SKY/WX    TMP DP  RH WIND       PRES   REMARKS
PULLMAN        MOSUNNY   61  51  70 N6        29.94F
LEWISTON, ID   SUNNY     64  52  64 VRB5      29.90F
WALLA WALLA    MOSUNNY   61  53  75 SW3       29.92R
PENDLETON, OR  MOSUNNY   59  52  77 W5        29.91F
$$




USA.gov is the U.S. government's official web portal to all federal, state and local government web resources and services.